STARLINK-35669

Last updated on Wed Dec 10 2025 00:02:05 GMT+0000 (Coordinated Universal Time)

1 66396U 25257S 25343.66668981 .00091089 00000+0 22666-2 0 9998 2 66396 53.1595 278.7686 0000915 103.6111 117.9176 15.39532933 6003
UTC large
Height (km)
Speed (km/s)
/
Latitude / Longitude
Inclination (degrees)
Orbital Period (minutes)
Azimuth
Elevation
Range (km)
Doppler Factor

Next 0 passes for location: London (51.5072 / 0.1276)

Sorry there are no passes over London.